Location: ?
(35.3544°N, 139.4507°E)
Time: 00:32:23
(UTC+00:00)

UNK - Pass Details

Date: 03 August 2024
Orbit: 659 x 677 km, 98.3° (Epoch: 18 September)

Event Time Altitude Azimuth Distance (km) Brightness Sun altitude
Exits shadow 18:23:19 24° 199° (SSW) 1,347 4.8 -16.8°
Maximum altitude 18:25:41 47° 260° (W) 878 3.9 -16.4°
Drops below altitude 10° 18:30:06 10° 335° (NNW) 2,093 6.4 -15.7°
Sets 18:32:24 0° 341° (NNW) 3,014 7.3 -15.3°
